Location: Grossmotten
(48.5500°N, 15.3833°E)
Time: 10:47:51
(UTC+00:00)

Cosmos 1898 Rocket - Pass Details

Date: 15 November 2019
Orbit: 753 x 785 km, 74.0° (Epoch: 15 December)

Event Time Altitude Azimuth Distance (km) Brightness Sun altitude
Rises 04:50:34 0° 224° (SW) 3,216 6.4 -12.5°
Reaches altitude 10° 04:53:03 10° 232° (SW) 2,299 5.6 -12.1°
Maximum altitude 04:57:57 40° 302° (WNW) 1,137 3.9 -11.3°
Drops below altitude 10° 05:02:55 10° 11° (NNE) 2,333 6.0 -10.5°
Sets 05:05:28 0° 19° (NNE) 3,270 6.8 -10.1°
